Weather Roundup
Issued by NWS Chicago, IL

Home | Current Version | Previous Version | Graphics & Text | Print | Product List | Glossary On
Versions: 1 2 3 4 5 6 7 8 9 10 11 12 13 14 15 16 17 18 19 20 21 22 23 24 25 26 27 28 29 30 31 32 33 34 35 36 37 38 39 40 41 42 43 44 45 46 47 48 49 50
000
NZUS59 KLOT 231403
HRRLOT

CHICAGO AREA WEATHER ROUNDUP
NATIONAL WEATHER SERVICE CHICAGO/ROMEOVILLE IL
900 AM CDT WED AUG 23 2017

NOTE: "FAIR" INDICATES FEW OR NO CLOUDS BELOW 12,000 FEET WITH NO
SIGNIFICANT WEATHER AND/OR OBSTRUCTIONS TO VISIBILITY.

* THESE STATIONS ARE NOT UNDER NWS QUALITY CONTROL. THEY ALSO MAY NOT
  REPORT WEATHER SUCH AS PRECIPITATION OR FOG.

ILZ005-006-012>014-019>023-231500-
NORTHEAST ILLINOIS

CITY           SKY/WX    TMP DP  RH WIND       PRES   REMARKS
OHARE          SUNNY     68  50  52 NW10      30.04R
MIDWAY         SUNNY     68  51  54 NW9       30.03F
AURORA         SUNNY     63  56  78 NW9       30.06S
LANSING*       SUNNY     68  55  62 NW7       30.04S
JOLIET*        SUNNY     66  55  67 N6        30.06S
WAUKEGAN       SUNNY     65  54  67 VRB6      30.02S
DUPAGE AIRPORT SUNNY     66  54  65 NW10      30.05R
WHEELING       SUNNY     67  54  63 NW9       30.05R
MORRIS*        SUNNY     64  55  71 NW3       30.05S
NORTHERLY ISL    N/A     69  49  48 W12         N/A
$$

WIZ051-052-058>065-066-070>072-231500-
SOUTHEAST WISCONSIN

CITY           SKY/WX    TMP DP  RH WIND       PRES   REMARKS
MILWAUKEE      SUNNY     66  52  60 NW10      30.03R
KENOSHA*       SUNNY     65  53  65 NW8       30.03S
RACINE*        SUNNY     65  54  67 NW8       30.04R
$$

INZ001>003-010>013-019-020-231500-
NORTHWEST INDIANA

CITY           SKY/WX    TMP DP  RH WIND       PRES   REMARKS
GARY*          NOT AVBL
MICHIGAN CITY* NOT AVBL
RENSSELAER*    NOT AVBL
VALPARAISO     SUNNY     69  55  60 NW8       30.04S
$$

LMZ740>746-231500-
SOUTHERN LAKE MICHIGAN

STATION/POSITION TIME  SKY/WX   TEMP WIND        PRES    VSBY
                                AIR  DIR/SP/G
                 (UTC)          (F)  (DEG/KT/KT) (MB)    (MI)
HARRISON CRIB    1340            67  310/  9/ 11   N/A
BURNHAM HARBOR   NOT AVBL
CALUMET HARBOR   1330            67  290/  5/  7 1016.4S
BURNS HARBOR     1340            69  310/ 14/ 18 1017.3S
MICHIGAN CITY    1340            69  290/ 16/ 18   N/A
$$

ABBREVIATIONS USED IN REMARKS
   TC - TEMPERATURE IN CELSIUS
  WCI - WIND CHILL INDEX
   HX - HEAT INDEX
  VSB - VISIBILITY
$$




USA.gov is the U.S. government's official web portal to all federal, state and local government web resources and services.